Regional Weather Roundup
Issued by NWS

Home | Current Version | Previous Version | Graphics & Text | Print | Product List | Glossary On
Versions: 1 2 3 4 5 6 7 8 9 10 11 12 13 14 15 16 17 18 19 20 21 22 23 24 25 26 27 28 29 30 31 32 33 34 35 36 37 38 39 40 41 42 43 44 45 46 47 48 49 50
000
ASUS43 KDTX 190010
RWRMI
MICHIGAN HOURLY REGIONAL WEATHER ROUNDUP
NATIONAL WEATHER SERVICE DETROIT/PONTIAC MI
800 PM EDT FRI APR 18 2014

NOTE: "FAIR" INDICATES FEW OR NO CLOUDS BELOW 12,000 FEET WITH NO
SIGNIFICANT WEATHER AND/OR OBSTRUCTION TO VISIBILITY.

MIZ047>049-052>055-059>063-066>070-074>076-081>083-190100-
SOUTHEAST LOWER MICHIGAN

CITY           SKY/WX    TMP DP  RH WIND       PRES   REMARKS
ADRIAN         CLEAR     61  33  35 N7        30.23R
6HR MIN TEMP:  61; 6HR MAX TEMP:  66;

ALMA           CLEAR     53  25  33 NW8       30.28R
ANN ARBOR      CLEAR     60  33  36 NW10      30.23R
BAD AXE        CLEAR     36  31  81 NE13      30.32R
6HR MIN TEMP:  36; 6HR MAX TEMP:  53;

DETROIT CITY   PTCLDY    52  38  58 E8        30.25S
6HR MIN TEMP:  52; 6HR MAX TEMP:  59;

DETROIT        PTCLDY    54  41  61 E7        30.24S
6HR MIN TEMP:  54; 6HR MAX TEMP:  65;

FLINT          PTCLDY    57  35  43 N6        30.24S
6HR MIN TEMP:  56; 6HR MAX TEMP:  62;

GROSSE ILE     CLEAR     52  43  71 NE5       30.23R
HILLSDALE      CLEAR     58  30  34 NW12      30.24S
6HR MIN TEMP:  58; 6HR MAX TEMP:  65;

HOWELL         CLEAR     55  33  42 NW9       30.24S
6HR MIN TEMP:  55; 6HR MAX TEMP:  60;


CITY           SKY/WX    TMP DP  RH WIND       PRES   REMARKS
JACKSON        CLEAR     56  30  37 NW10      30.24R
6HR MIN TEMP:  56; 6HR MAX TEMP:  65;

LAMBERTVILLE   CLEAR     54  43  66 E7        30.24R
LANSING        CLEAR     55  30  38 NW9       30.26S
6HR MIN TEMP:  55; 6HR MAX TEMP:  61;

LAPEER         NOT AVBL
MASON          CLEAR     55  33  43 W10G18    30.25S
MONROE         CLEAR     54  45  71 E6        30.23R
MT. CLEMENS    MOCLDY    47  37  68 NE12      30.24R
6HR MIN TEMP:  45; 6HR MAX TEMP:  52;

PONTIAC        PTCLDY    56  35  45 N5        30.23S
6HR MIN TEMP:  51; 6HR MAX TEMP:  61;

PORT HOPE        N/A     36  30  79 NE10      30.31S
6HR MIN TEMP:  36; 6HR MAX TEMP:  42;

PORT HURON     CLEAR     39  30  70 NE12      30.29R
TRI CITIES     CLEAR     44  35  70 NE16      30.29R
6HR MIN TEMP:  44; 6HR MAX TEMP:  60;

YPSILANTI      PTCLDY    58  43  57 SE9       30.23S
6HR MIN TEMP:  58; 6HR MAX TEMP:  69;

$$
MIZ043>046-050>051-056>058-064>065-071>073-077>080-190100-
SOUTHWEST LOWER MICHIGAN

CITY           SKY/WX    TMP DP  RH WIND       PRES   REMARKS
BATTLE CREEK   CLEAR     52  32  46 NW13      30.28S
6HR MIN TEMP:  52; 6HR MAX TEMP:  63;

BENTON HARBOR  CLEAR     38  28  67 VRB6      30.34S
6HR MIN TEMP:  38; 6HR MAX TEMP:  47;

BIG RAPIDS     CLEAR     46  22  37 NW8       30.31R
6HR MIN TEMP:  46; 6HR MAX TEMP:  54;

COLDWATER      CLEAR     55  31  39 NW9       30.26R
6HR MIN TEMP:  55; 6HR MAX TEMP:  63;

HOLLAND        CLEAR     42  29  59 NW9       30.33F
6HR MIN TEMP:  42; 6HR MAX TEMP:  54;

GRAND RAPIDS   PTCLDY    52  32  46 W10       30.29S
6HR MIN TEMP:  52; 6HR MAX TEMP:  61;

KALAMAZOO      CLEAR     50  31  48 NW16      30.29S
6HR MIN TEMP:  50; 6HR MAX TEMP:  63;

MARSHALL       CLEAR     53  33  46 NW9G17    30.26R
MUSKEGON       CLEAR     45  27  49 NW12      30.33S
6HR MIN TEMP:  45; 6HR MAX TEMP:  52;

$$
MIZ016>042-190100-
NORTHERN LOWER MICHIGAN

CITY           SKY/WX    TMP DP  RH WIND       PRES   REMARKS
ALPENA         CLOUDY    39  24  55 NW8       30.35R
6HR MIN TEMP:  39; 6HR MAX TEMP:  48;

BEAVER ISLAND  CLOUDY    36  29  76 NW5       30.40R
6HR MIN TEMP:  36; 6HR MAX TEMP:  41;

BELLAIRE       CLOUDY    38  27  64 N7        30.39R
6HR MIN TEMP:  37; 6HR MAX TEMP:  41;

CADILLAC       CLEAR     36  25  64 NW12      30.34R
CHARLEVOIX     MOCLDY    37  30  76 CALM      30.43R
6HR MIN TEMP:  36; 6HR MAX TEMP:  40;

FRANKFORT      CLEAR     38  25  60 N3        30.40R
GAYLORD        CLOUDY    34  24  67 VRB7      30.35R
6HR MIN TEMP:  34; 6HR MAX TEMP:  37;

GRAYLING       CLEAR     35  23  61 NW10      30.36R
6HR MIN TEMP:  35; 6HR MAX TEMP:  43;

HARBOR SPRINGS CLOUDY    38  28  67 CALM      30.38S
HOUGHTON LAKE  CLEAR     38  24  57 N12       30.34R
6HR MIN TEMP:  38; 6HR MAX TEMP:  47;

MANISTEE       CLEAR     39  25  56 N8        30.39R
OSCODA         MOCLDY    38  31  75 CALM      30.31S
PELLSTON       CLOUDY    37  27  67 NW9       30.38S
6HR MIN TEMP:  37; 6HR MAX TEMP:  40;

TRAVERSE CITY  PTCLDY    37  26  64 NE7       30.39R
6HR MIN TEMP:  37; 6HR MAX TEMP:  41;

$$
MIZ007>008-015-190100-
EASTERN UPPER MICHIGAN

CITY           SKY/WX    TMP DP  RH WIND       PRES   REMARKS
KINROSS        CLOUDY    34  32  93 NW12      30.36R
6HR MIN TEMP:  34; 6HR MAX TEMP:  37;

MACKINAC ISLAN CLOUDY    36  29  76 NW7       30.37R
6HR MIN TEMP:  34; 6HR MAX TEMP:  37;

NEWBERRY       MOCLDY    33  28  79 NW6       30.38S
S. S. MARIE    CLOUDY    33  30  88 W10       30.36R
6HR MIN TEMP:  33; 6HR MAX TEMP:  37;

$$
MIZ004>006-011>014-085-190100-
CENTRAL UPPER MICHIGAN

CITY           SKY/WX    TMP DP  RH WIND       PRES   REMARKS
MANISTIQUE     CLEAR     35  28  75 N8        30.40R
6HR MIN TEMP:  35; 6HR MAX TEMP:  39;

ESCANABA       CLEAR     41  23  48 N6        30.40S
6HR MIN TEMP:  41; 6HR MAX TEMP:  45;

MENOMINEE      PTCLDY    39  25  56 E10       30.40R
6HR MIN TEMP:  39; 6HR MAX TEMP:  45;

SAWYER-GWINN   CLEAR     32  27  80 NE7       30.40R
$$
MIZ001>003-009>011-084-190100-
WESTERN UPPER MICHIGAN

CITY           SKY/WX    TMP DP  RH WIND       PRES   REMARKS
IRON MOUNTAIN  CLEAR     39  23  52 NE5       30.37S
6HR MIN TEMP:  37; 6HR MAX TEMP:  41;

HOUGHTON       CLEAR     35  22  58 N5        30.39S
6HR MIN TEMP:  34; 6HR MAX TEMP:  36;

COPPER HARBOR    N/A     33  25  72 N5        30.42R
6HR MIN TEMP:  33; 6HR MAX TEMP:  36;

IRONWOOD       CLEAR     37  19  48 N5        30.33S
6HR MIN TEMP:  36; 6HR MAX TEMP:  39;

$$

ABBREVIATIONS USED IN REMARKS
   TC - TEMPERATURE IN CELSIUS
  WCI - WIND CHILL INDEX
   HX - HEAT INDEX
  VSB - VISIBILITY




USA.gov is the U.S. government's official web portal to all federal, state and local government web resources and services.